Time,TemperatureF,DewpointF,PressureIn,WindDirection,WindDirectionDegrees,WindSpeedMPH,WindSpeedGustMPH,Humidity,HourlyPrecipIn,Conditions,Clouds,dailyrainin,SoftwareType,DateUTC
2013-12-19 00:00:00,32.0,-20.3,0.00,South,180,0.0,0.0,9,0.00,,,-99.99,,2013-12-19 05:00:00,
2013-12-19 00:02:00,25.0,11.4,30.02,South,180,0.0,0.0,55,0.00,,,-99.99,,2013-12-19 05:02:00,
2013-12-19 00:04:00,24.8,11.6,30.02,South,180,0.0,0.0,56,0.00,,,-99.99,,2013-12-19 05:04:00,
2013-12-19 00:06:00,24.6,11.4,30.02,South,180,0.0,0.0,56,0.00,,,-99.99,,2013-12-19 05:06:00,
2013-12-19 00:08:00,24.6,11.4,30.02,South,180,0.0,0.0,56,0.00,,,-99.99,,2013-12-19 05:08:00,
2013-12-19 00:10:00,24.4,11.3,30.02,South,180,0.0,0.0,56,0.00,,,-99.99,,2013-12-19 05:10:00,
2013-12-19 00:16:00,24.4,11.3,30.02,South,180,0.0,0.0,56,0.00,,,-99.99,,2013-12-19 05:16:00,
2013-12-19 00:22:00,24.4,11.3,30.02,South,180,0.0,0.0,56,0.00,,,-99.99,,2013-12-19 05:22:00,
2013-12-19 00:28:00,24.3,11.6,30.02,South,180,0.0,0.0,57,0.00,,,-99.99,,2013-12-19 05:28:00,
2013-12-19 00:34:00,24.1,11.4,30.02,South,180,0.0,0.0,57,0.00,,,-99.99,,2013-12-19 05:34:00,
2013-12-19 00:40:00,23.9,11.2,30.02,South,180,0.0,0.0,57,0.00,,,-99.99,,2013-12-19 05:40:00,
2013-12-19 00:46:00,23.7,11.0,30.02,South,180,0.0,0.0,57,0.00,,,-99.99,,2013-12-19 05:46:00,
2013-12-19 00:52:00,23.5,10.8,30.02,South,180,0.0,0.0,57,0.00,,,-99.99,,2013-12-19 05:52:00,
2013-12-19 00:58:00,23.4,11.1,29.99,South,180,0.0,0.0,58,0.00,,,-99.99,,2013-12-19 05:58:00,
2013-12-19 01:04:00,23.4,11.1,29.99,South,180,0.0,0.0,58,0.00,,,-99.99,,2013-12-19 06:04:00,
2013-12-19 01:10:00,23.2,10.9,29.99,South,180,0.0,0.0,58,0.00,,,-99.99,,2013-12-19 06:10:00,
2013-12-19 01:16:00,23.0,11.1,29.99,South,180,0.0,0.0,59,0.00,,,-99.99,,2013-12-19 06:16:00,
2013-12-19 01:22:00,23.0,11.1,29.99,South,180,0.0,0.0,59,0.00,,,-99.99,,2013-12-19 06:22:00,
2013-12-19 01:28:00,22.8,10.9,29.99,South,180,0.0,0.0,59,0.00,,,-99.99,,2013-12-19 06:28:00,
2013-12-19 01:34:00,22.8,11.3,29.99,South,180,0.0,0.0,60,0.00,,,-99.99,,2013-12-19 06:34:00,
2013-12-19 01:40:00,22.8,11.3,29.99,South,180,0.0,0.0,60,0.00,,,-99.99,,2013-12-19 06:40:00,
2013-12-19 01:46:00,22.8,11.3,29.99,South,180,0.0,0.0,60,0.00,,,-99.99,,2013-12-19 06:46:00,
2013-12-19 01:52:00,22.8,11.7,29.99,South,180,0.0,0.0,61,0.00,,,-99.99,,2013-12-19 06:52:00,
2013-12-19 01:58:00,22.8,11.7,29.99,South,180,0.0,0.0,61,0.00,,,-99.99,,2013-12-19 06:58:00,
2013-12-19 02:04:00,22.8,12.1,29.99,South,180,0.0,0.0,62,0.00,,,-99.99,,2013-12-19 07:04:00,
2013-12-19 02:10:00,22.8,12.1,29.99,South,180,0.0,0.0,62,0.00,,,-99.99,,2013-12-19 07:10:00,
2013-12-19 02:16:00,22.8,12.1,29.99,South,180,0.0,0.0,62,0.00,,,-99.99,,2013-12-19 07:16:00,
2013-12-19 02:22:00,22.6,11.9,29.99,South,180,0.0,0.0,62,0.00,,,-99.99,,2013-12-19 07:22:00,
2013-12-19 02:28:00,22.5,11.8,29.99,South,180,0.0,0.0,62,0.00,,,-99.99,,2013-12-19 07:28:00,
2013-12-19 02:34:00,22.3,11.9,29.99,South,180,0.0,0.0,63,0.00,,,-99.99,,2013-12-19 07:34:00,
2013-12-19 02:40:00,22.5,12.1,29.99,South,180,0.0,0.0,63,0.00,,,-99.99,,2013-12-19 07:40:00,
2013-12-19 02:46:00,22.5,12.5,29.96,South,180,0.0,0.0,64,0.00,,,-99.99,,2013-12-19 07:46:00,
2013-12-19 02:52:00,22.3,12.3,29.96,South,180,0.0,0.0,64,0.00,,,-99.99,,2013-12-19 07:52:00,
2013-12-19 02:58:00,22.3,12.3,29.96,South,180,0.0,0.0,64,0.00,,,-99.99,,2013-12-19 07:58:00,
2013-12-19 03:04:00,22.5,12.5,29.96,South,180,0.0,0.0,64,0.00,,,-99.99,,2013-12-19 08:04:00,
2013-12-19 03:10:00,22.5,12.8,29.96,South,180,0.0,0.0,65,0.00,,,-99.99,,2013-12-19 08:10:00,
2013-12-19 03:16:00,22.6,12.9,29.96,South,180,0.0,0.0,65,0.00,,,-99.99,,2013-12-19 08:16:00,
2013-12-19 03:22:00,22.6,12.9,29.96,South,180,0.0,0.0,65,0.00,,,-99.99,,2013-12-19 08:22:00,
2013-12-19 03:28:00,22.6,12.9,29.96,South,180,0.0,0.0,65,0.00,,,-99.99,,2013-12-19 08:28:00,
2013-12-19 03:34:00,22.6,12.9,29.96,South,180,0.0,0.0,65,0.00,,,-99.99,,2013-12-19 08:34:00,
2013-12-19 03:40:00,22.8,13.4,29.96,South,180,0.0,0.0,66,0.00,,,-99.99,,2013-12-19 08:40:00,
2013-12-19 03:46:00,22.8,13.4,29.96,South,180,0.0,0.0,66,0.00,,,-99.99,,2013-12-19 08:46:00,
2013-12-19 03:52:00,23.0,13.6,29.96,South,180,0.0,0.0,66,0.00,,,-99.99,,2013-12-19 08:52:00,
2013-12-19 03:58:00,23.2,13.8,29.96,South,180,0.0,0.0,66,0.00,,,-99.99,,2013-12-19 08:58:00,
2013-12-19 04:04:00,23.4,14.0,29.96,South,180,0.0,0.0,66,0.00,,,-99.99,,2013-12-19 09:04:00,
2013-12-19 04:10:00,23.4,14.0,29.96,South,180,0.0,0.0,66,0.00,,,-99.99,,2013-12-19 09:10:00,
2013-12-19 04:16:00,23.2,13.8,29.93,South,180,0.0,0.0,66,0.00,,,-99.99,,2013-12-19 09:16:00,
2013-12-19 04:22:00,23.0,14.0,29.93,South,180,0.0,0.0,67,0.00,,,-99.99,,2013-12-19 09:22:00,
2013-12-19 04:28:00,22.8,13.8,29.93,South,180,0.0,0.0,67,0.00,,,-99.99,,2013-12-19 09:28:00,
2013-12-19 04:34:00,22.8,13.8,29.93,South,180,0.0,0.0,67,0.00,,,-99.99,,2013-12-19 09:34:00,
2013-12-19 04:40:00,22.6,13.6,29.93,South,180,0.0,0.0,67,0.00,,,-99.99,,2013-12-19 09:40:00,
2013-12-19 04:46:00,22.5,13.5,29.93,South,180,0.0,0.0,67,0.00,,,-99.99,,2013-12-19 09:46:00,
2013-12-19 04:52:00,22.5,13.8,29.93,South,180,0.0,0.0,68,0.00,,,-99.99,,2013-12-19 09:52:00,
2013-12-19 04:58:00,22.5,13.8,29.93,South,180,0.0,0.0,68,0.00,,,-99.99,,2013-12-19 09:58:00,
2013-12-19 05:04:00,22.6,13.9,29.93,South,180,0.0,0.0,68,0.00,,,-99.99,,2013-12-19 10:04:00,
2013-12-19 05:10:00,22.6,13.9,29.93,South,180,0.0,0.0,68,0.00,,,-99.99,,2013-12-19 10:10:00,
2013-12-19 05:16:00,22.6,13.9,29.90,South,180,0.0,0.0,68,0.00,,,-99.99,,2013-12-19 10:16:00,
2013-12-19 05:22:00,22.8,14.4,29.90,South,180,0.0,0.0,69,0.00,,,-99.99,,2013-12-19 10:22:00,
2013-12-19 05:28:00,22.8,14.4,29.90,South,180,0.0,0.0,69,0.00,,,-99.99,,2013-12-19 10:28:00,
2013-12-19 05:34:00,22.8,14.4,29.90,South,180,0.0,0.0,69,0.00,,,-99.99,,2013-12-19 10:34:00,
2013-12-19 05:40:00,22.6,14.2,29.90,South,180,0.0,0.0,69,0.00,,,-99.99,,2013-12-19 10:40:00,
2013-12-19 05:46:00,22.8,14.4,29.90,South,180,0.0,0.0,69,0.00,,,-99.99,,2013-12-19 10:46:00,
2013-12-19 05:52:00,23.2,14.8,29.90,South,180,0.0,0.0,69,0.00,,,-99.99,,2013-12-19 10:52:00,
2013-12-19 05:58:00,23.2,14.8,29.90,South,180,0.0,0.0,69,0.00,,,-99.99,,2013-12-19 10:58:00,
2013-12-19 06:04:00,23.0,14.9,29.90,South,180,0.0,0.0,70,0.00,,,-99.99,,2013-12-19 11:04:00,
2013-12-19 06:10:00,22.8,14.7,29.90,South,180,0.0,0.0,70,0.00,,,-99.99,,2013-12-19 11:10:00,
2013-12-19 06:16:00,22.8,14.7,29.90,South,180,0.0,0.0,70,0.00,,,-99.99,,2013-12-19 11:16:00,
2013-12-19 06:22:00,22.8,14.7,29.90,South,180,0.0,0.0,70,0.00,,,-99.99,,2013-12-19 11:22:00,
2013-12-19 06:28:00,22.8,14.7,29.90,South,180,0.0,0.0,70,0.00,,,-99.99,,2013-12-19 11:28:00,
2013-12-19 06:34:00,22.8,14.7,29.90,South,180,0.0,0.0,70,0.00,,,-99.99,,2013-12-19 11:34:00,
2013-12-19 06:40:00,22.6,14.5,29.90,South,180,0.0,0.0,70,0.00,,,-99.99,,2013-12-19 11:40:00,
2013-12-19 06:46:00,22.8,15.0,29.90,South,180,0.0,0.0,71,0.00,,,-99.99,,2013-12-19 11:46:00,
2013-12-19 06:52:00,23.0,15.2,29.90,South,180,0.0,0.0,71,0.00,,,-99.99,,2013-12-19 11:52:00,
2013-12-19 06:58:00,23.4,15.6,29.90,South,180,0.0,0.0,71,0.00,,,-99.99,,2013-12-19 11:58:00,
2013-12-19 07:04:00,23.5,15.7,29.90,South,180,0.0,0.0,71,0.00,,,-99.99,,2013-12-19 12:04:00,
2013-12-19 07:10:00,23.5,15.7,29.90,South,180,0.0,0.0,71,0.00,,,-99.99,,2013-12-19 12:10:00,
2013-12-19 07:16:00,23.5,16.0,29.90,South,180,0.0,0.0,72,0.00,,,-99.99,,2013-12-19 12:16:00,
2013-12-19 07:22:00,23.5,16.0,29.90,South,180,0.0,0.0,72,0.00,,,-99.99,,2013-12-19 12:22:00,
2013-12-19 07:28:00,23.5,16.0,29.96,South,180,0.0,0.0,72,0.00,,,-99.99,,2013-12-19 12:28:00,
2013-12-19 07:34:00,23.5,16.0,29.96,South,180,0.0,0.0,72,0.00,,,-99.99,,2013-12-19 12:34:00,
2013-12-19 07:40:00,23.5,16.0,29.96,South,180,0.0,0.0,72,0.00,,,-99.99,,2013-12-19 12:40:00,
2013-12-19 07:46:00,23.5,16.0,29.96,South,180,0.0,0.0,72,0.00,,,-99.99,,2013-12-19 12:46:00,
2013-12-19 07:52:00,23.7,16.2,29.96,South,180,0.0,0.0,72,0.00,,,-99.99,,2013-12-19 12:52:00,
2013-12-19 07:58:00,23.9,16.7,29.99,South,180,0.0,0.0,73,0.00,,,-99.99,,2013-12-19 12:58:00,
2013-12-19 08:04:00,24.1,16.9,29.99,South,180,0.0,0.0,73,0.00,,,-99.99,,2013-12-19 13:04:00,
2013-12-19 08:10:00,24.4,17.2,29.99,South,180,0.0,0.0,73,0.00,,,-99.99,,2013-12-19 13:10:00,
2013-12-19 08:16:00,24.8,17.6,29.99,South,180,0.0,0.0,73,0.00,,,-99.99,,2013-12-19 13:16:00,
2013-12-19 08:22:00,25.2,17.9,29.99,South,180,0.0,0.0,73,0.00,,,-99.99,,2013-12-19 13:22:00,
2013-12-19 08:28:00,25.5,18.2,29.99,South,180,0.0,0.0,73,0.00,,,-99.99,,2013-12-19 13:28:00,
2013-12-19 08:34:00,25.9,18.9,29.99,South,180,0.0,0.0,74,0.00,,,-99.99,,2013-12-19 13:34:00,
2013-12-19 08:40:00,26.2,19.2,29.99,South,180,0.0,0.0,74,0.00,,,-99.99,,2013-12-19 13:40:00,
2013-12-19 08:46:00,27.0,20.0,29.99,South,180,0.0,0.0,74,0.00,,,-99.99,,2013-12-19 13:46:00,
2013-12-19 08:52:00,27.1,20.1,29.99,South,180,0.0,0.0,74,0.00,,,-99.99,,2013-12-19 13:52:00,
2013-12-19 08:58:00,27.9,20.8,29.99,South,180,0.0,0.0,74,0.00,,,-99.99,,2013-12-19 13:58:00,
2013-12-19 09:04:00,28.6,21.8,29.99,South,180,0.0,0.0,75,0.00,,,-99.99,,2013-12-19 14:04:00,
2013-12-19 09:10:00,30.2,23.6,29.99,South,180,0.0,0.0,76,0.00,,,-99.99,,2013-12-19 14:10:00,
2013-12-19 09:16:00,32.0,25.1,29.99,South,180,0.0,0.0,75,0.00,,,-99.99,,2013-12-19 14:16:00,
2013-12-19 09:22:00,33.4,26.2,29.99,South,180,0.0,0.0,74,0.00,,,-99.99,,2013-12-19 14:22:00,
2013-12-19 09:28:00,34.3,25.8,29.99,South,180,0.0,0.0,70,0.00,,,-99.99,,2013-12-19 14:28:00,
2013-12-19 09:34:00,34.9,25.0,29.99,South,180,0.0,0.0,66,0.00,,,-99.99,,2013-12-19 14:34:00,
2013-12-19 09:40:00,35.1,24.1,29.99,South,180,0.0,0.0,63,0.00,,,-99.99,,2013-12-19 14:40:00,
2013-12-19 09:46:00,35.2,23.4,29.96,South,180,0.0,0.0,61,0.00,,,-99.99,,2013-12-19 14:46:00,
2013-12-19 09:52:00,35.4,22.8,29.96,South,180,0.0,0.0,59,0.00,,,-99.99,,2013-12-19 14:52:00,
2013-12-19 09:58:00,35.4,22.4,29.96,South,180,0.0,0.0,58,0.00,,,-99.99,,2013-12-19 14:58:00,
2013-12-19 10:04:00,35.4,21.6,29.96,South,180,0.0,0.0,56,0.00,,,-99.99,,2013-12-19 15:04:00,
2013-12-19 10:10:00,35.6,21.3,29.96,South,180,0.0,0.0,55,0.00,,,-99.99,,2013-12-19 15:10:00,
2013-12-19 10:16:00,35.6,20.9,29.96,South,180,0.0,0.0,54,0.00,,,-99.99,,2013-12-19 15:16:00,
2013-12-19 10:22:00,35.8,20.6,29.96,South,180,0.0,0.0,53,0.00,,,-99.99,,2013-12-19 15:22:00,
2013-12-19 10:28:00,36.1,20.9,29.96,South,180,0.0,0.0,53,0.00,,,-99.99,,2013-12-19 15:28:00,
2013-12-19 10:34:00,36.9,21.2,29.96,South,180,0.0,0.0,52,0.00,,,-99.99,,2013-12-19 15:34:00,
2013-12-19 10:40:00,37.6,21.8,29.96,South,180,0.0,0.0,52,0.00,,,-99.99,,2013-12-19 15:40:00,
2013-12-19 10:46:00,38.5,22.2,29.96,South,180,0.0,0.0,51,0.00,,,-99.99,,2013-12-19 15:46:00,
2013-12-19 10:52:00,39.4,22.0,29.96,South,180,0.0,0.0,49,0.00,,,-99.99,,2013-12-19 15:52:00,
2013-12-19 10:58:00,40.3,22.3,29.96,South,180,0.0,0.0,48,0.00,,,-99.99,,2013-12-19 15:58:00,
2013-12-19 11:04:00,41.0,21.9,29.96,South,180,0.0,0.0,46,0.00,,,-99.99,,2013-12-19 16:04:00,
2013-12-19 11:10:00,42.1,22.9,29.96,South,180,0.0,0.0,46,0.00,,,-99.99,,2013-12-19 16:10:00,
2013-12-19 11:16:00,43.0,22.6,29.96,South,180,0.0,0.0,44,0.00,,,-99.99,,2013-12-19 16:16:00,
2013-12-19 11:22:00,43.7,22.6,29.96,South,180,0.0,0.0,42,0.00,,,-99.99,,2013-12-19 16:22:00,
2013-12-19 11:28:00,44.8,23.6,29.96,South,180,0.0,0.0,42,0.00,,,-99.99,,2013-12-19 16:28:00,
2013-12-19 11:34:00,45.5,23.7,29.96,South,180,0.0,0.0,41,0.00,,,-99.99,,2013-12-19 16:34:00,
2013-12-19 11:40:00,46.0,24.1,29.96,South,180,0.0,0.0,41,0.00,,,-99.99,,2013-12-19 16:40:00,
2013-12-19 11:46:00,46.8,24.2,29.96,South,180,0.0,0.0,40,0.00,,,-99.99,,2013-12-19 16:46:00,
2013-12-19 11:52:00,47.7,25.0,29.96,South,180,0.0,0.0,40,0.00,,,-99.99,,2013-12-19 16:52:00,
2013-12-19 11:58:00,48.7,25.3,29.96,South,180,0.0,0.0,39,0.00,,,-99.99,,2013-12-19 16:58:00,
2013-12-19 12:04:00,49.5,26.0,29.96,South,180,0.0,0.0,39,0.00,,,-99.99,,2013-12-19 17:04:00,
2013-12-19 12:10:00,49.6,25.4,29.96,South,180,0.0,0.0,38,0.00,,,-99.99,,2013-12-19 17:10:00,
2013-12-19 12:16:00,49.3,25.2,29.96,South,180,0.0,0.0,38,0.00,,,-99.99,,2013-12-19 17:16:00,
2013-12-19 12:22:00,49.1,24.3,29.96,South,180,0.0,0.0,37,0.00,,,-99.99,,2013-12-19 17:22:00,
2013-12-19 12:28:00,49.1,24.3,29.93,South,180,0.0,0.0,37,0.00,,,-99.99,,2013-12-19 17:28:00,
2013-12-19 12:34:00,49.8,24.9,29.93,South,180,0.0,0.0,37,0.00,,,-99.99,,2013-12-19 17:34:00,
2013-12-19 12:40:00,50.5,25.5,29.93,South,180,0.0,0.0,37,0.00,,,-99.99,,2013-12-19 17:40:00,
2013-12-19 12:46:00,51.3,26.3,29.93,South,180,0.0,0.0,37,0.00,,,-99.99,,2013-12-19 17:46:00,
2013-12-19 12:52:00,51.8,24.5,29.93,South,180,0.0,0.0,34,0.00,,,-99.99,,2013-12-19 17:52:00,
2013-12-19 12:58:00,51.8,24.5,29.93,South,180,0.0,0.0,34,0.00,,,-99.99,,2013-12-19 17:58:00,
2013-12-19 13:04:00,52.0,24.7,29.93,South,180,0.0,0.0,34,0.00,,,-99.99,,2013-12-19 18:04:00,
2013-12-19 13:06:00,52.0,24.7,29.93,South,180,0.0,0.0,34,0.00,,,-99.99,,2013-12-19 18:06:00,
2013-12-19 13:12:00,52.3,25.0,29.93,South,180,0.0,0.0,34,0.00,,,-99.99,,2013-12-19 18:12:00,
2013-12-19 13:18:00,52.7,25.3,29.93,South,180,0.0,0.0,34,0.00,,,-99.99,,2013-12-19 18:18:00,
2013-12-19 13:24:00,52.9,23.9,29.93,South,180,0.0,0.0,32,0.00,,,-99.99,,2013-12-19 18:24:00,
2013-12-19 13:30:00,53.1,24.1,29.93,South,180,0.0,0.0,32,0.00,,,-99.99,,2013-12-19 18:30:00,
2013-12-19 13:36:00,53.2,24.2,29.93,South,180,0.0,0.0,32,0.00,,,-99.99,,2013-12-19 18:36:00,
2013-12-19 13:42:00,53.6,23.7,29.93,South,180,0.0,0.0,30,0.00,,,-99.99,,2013-12-19 18:42:00,
2013-12-19 13:48:00,54.0,24.0,29.93,South,180,0.0,0.0,30,0.00,,,-99.99,,2013-12-19 18:48:00,
2013-12-19 13:54:00,54.3,24.3,29.93,South,180,0.0,0.0,30,0.00,,,-99.99,,2013-12-19 18:54:00,
2013-12-19 14:00:00,54.5,24.5,29.93,South,180,0.0,0.0,30,0.00,,,-99.99,,2013-12-19 19:00:00,
2013-12-19 14:06:00,54.5,24.5,29.93,South,180,0.0,0.0,30,0.00,,,-99.99,,2013-12-19 19:06:00,
2013-12-19 14:12:00,54.3,24.3,29.93,South,180,0.0,0.0,30,0.00,,,-99.99,,2013-12-19 19:12:00,
2013-12-19 14:18:00,54.3,24.3,29.93,South,180,0.0,0.0,30,0.00,,,-99.99,,2013-12-19 19:18:00,
2013-12-19 14:24:00,54.1,24.1,29.93,South,180,0.0,0.0,30,0.00,,,-99.99,,2013-12-19 19:24:00,
2013-12-19 14:30:00,54.1,24.1,29.93,South,180,0.0,0.0,30,0.00,,,-99.99,,2013-12-19 19:30:00,
2013-12-19 14:36:00,54.3,24.3,29.93,South,180,0.0,0.0,30,0.00,,,-99.99,,2013-12-19 19:36:00,
2013-12-19 14:42:00,54.7,24.6,29.93,South,180,0.0,0.0,30,0.00,,,-99.99,,2013-12-19 19:42:00,
2013-12-19 14:48:00,55.2,25.1,29.93,South,180,0.0,0.0,30,0.00,,,-99.99,,2013-12-19 19:48:00,
2013-12-19 14:54:00,55.6,25.4,29.93,South,180,0.0,0.0,30,0.00,,,-99.99,,2013-12-19 19:54:00,
2013-12-19 15:00:00,55.9,25.7,29.93,South,180,0.0,0.0,30,0.00,,,-99.99,,2013-12-19 20:00:00,
2013-12-19 15:06:00,56.1,25.9,29.93,South,180,0.0,0.0,30,0.00,,,-99.99,,2013-12-19 20:06:00,
2013-12-19 15:12:00,55.9,25.7,29.93,South,180,0.0,0.0,30,0.00,,,-99.99,,2013-12-19 20:12:00,
2013-12-19 15:18:00,55.8,25.6,29.93,South,180,0.0,0.0,30,0.00,,,-99.99,,2013-12-19 20:18:00,
2013-12-19 15:24:00,55.6,25.4,29.93,South,180,0.0,0.0,30,0.00,,,-99.99,,2013-12-19 20:24:00,
2013-12-19 15:30:00,55.4,25.3,29.90,South,180,0.0,0.0,30,0.00,,,-99.99,,2013-12-19 20:30:00,
2013-12-19 15:36:00,55.0,24.9,29.90,South,180,0.0,0.0,30,0.00,,,-99.99,,2013-12-19 20:36:00,
2013-12-19 15:42:00,54.7,24.6,29.93,South,180,0.0,0.0,30,0.00,,,-99.99,,2013-12-19 20:42:00,
2013-12-19 15:48:00,54.0,24.0,29.93,South,180,0.0,0.0,30,0.00,,,-99.99,,2013-12-19 20:48:00,
2013-12-19 15:54:00,53.2,24.2,29.93,South,180,0.0,0.0,32,0.00,,,-99.99,,2013-12-19 20:54:00,
2013-12-19 16:00:00,52.9,23.9,29.93,South,180,0.0,0.0,32,0.00,,,-99.99,,2013-12-19 21:00:00,
2013-12-19 16:06:00,52.3,23.4,29.93,South,180,0.0,0.0,32,0.00,,,-99.99,,2013-12-19 21:06:00,
2013-12-19 16:12:00,52.0,23.1,29.93,South,180,0.0,0.0,32,0.00,,,-99.99,,2013-12-19 21:12:00,
2013-12-19 16:18:00,51.6,22.8,29.93,South,180,0.0,0.0,32,0.00,,,-99.99,,2013-12-19 21:18:00,
2013-12-19 16:24:00,51.6,22.8,29.93,South,180,0.0,0.0,32,0.00,,,-99.99,,2013-12-19 21:24:00,
2013-12-19 16:30:00,51.3,22.5,29.93,South,180,0.0,0.0,32,0.00,,,-99.99,,2013-12-19 21:30:00,
2013-12-19 16:36:00,51.1,22.3,29.93,South,180,0.0,0.0,32,0.00,,,-99.99,,2013-12-19 21:36:00,
2013-12-19 16:42:00,50.7,22.0,29.93,South,180,0.0,0.0,32,0.00,,,-99.99,,2013-12-19 21:42:00,
2013-12-19 16:48:00,50.2,21.5,29.93,South,180,0.0,0.0,32,0.00,,,-99.99,,2013-12-19 21:48:00,
2013-12-19 16:54:00,49.6,21.0,29.93,South,180,0.0,0.0,32,0.00,,,-99.99,,2013-12-19 21:54:00,
2013-12-19 17:00:00,49.1,20.6,29.93,South,180,0.0,0.0,32,0.00,,,-99.99,,2013-12-19 22:00:00,
2013-12-19 17:06:00,48.7,20.2,29.93,South,180,0.0,0.0,32,0.00,,,-99.99,,2013-12-19 22:06:00,
2013-12-19 17:12:00,48.6,20.1,29.93,South,180,0.0,0.0,32,0.00,,,-99.99,,2013-12-19 22:12:00,
2013-12-19 17:18:00,48.2,19.8,29.93,South,180,0.0,0.0,32,0.00,,,-99.99,,2013-12-19 22:18:00,
2013-12-19 17:24:00,47.8,20.2,29.93,South,180,0.0,0.0,33,0.00,,,-99.99,,2013-12-19 22:24:00,
2013-12-19 17:30:00,47.8,21.7,29.96,South,180,0.0,0.0,35,0.00,,,-99.99,,2013-12-19 22:30:00,
2013-12-19 17:36:00,47.7,21.6,29.96,South,180,0.0,0.0,35,0.00,,,-99.99,,2013-12-19 22:36:00,
2013-12-19 17:42:00,47.5,21.5,29.96,South,180,0.0,0.0,35,0.00,,,-99.99,,2013-12-19 22:42:00,
2013-12-19 17:48:00,47.5,21.5,29.99,South,180,0.0,0.0,35,0.00,,,-99.99,,2013-12-19 22:48:00,
2013-12-19 17:54:00,47.5,21.5,29.99,South,180,0.0,0.0,35,0.00,,,-99.99,,2013-12-19 22:54:00,
2013-12-19 18:00:00,47.5,21.5,29.99,South,180,0.0,0.0,35,0.00,,,-99.99,,2013-12-19 23:00:00,
2013-12-19 18:06:00,47.3,21.3,29.99,South,180,0.0,0.0,35,0.00,,,-99.99,,2013-12-19 23:06:00,
2013-12-19 18:12:00,46.9,20.9,29.99,South,180,0.0,0.0,35,0.00,,,-99.99,,2013-12-19 23:12:00,
2013-12-19 18:18:00,46.2,21.0,29.99,South,180,0.0,0.0,36,0.00,,,-99.99,,2013-12-19 23:18:00,
2013-12-19 18:24:00,45.5,20.4,29.99,South,180,0.0,0.0,36,0.00,,,-99.99,,2013-12-19 23:24:00,
2013-12-19 18:30:00,45.3,21.6,30.02,South,180,0.0,0.0,38,0.00,,,-99.99,,2013-12-19 23:30:00,
2013-12-19 18:36:00,45.3,21.6,30.02,South,180,0.0,0.0,38,0.00,,,-99.99,,2013-12-19 23:36:00,
2013-12-19 18:42:00,45.9,22.1,30.02,South,180,0.0,0.0,38,0.00,,,-99.99,,2013-12-19 23:42:00,
2013-12-19 18:48:00,46.4,22.6,30.02,South,180,0.0,0.0,38,0.00,,,-99.99,,2013-12-19 23:48:00,
2013-12-19 18:54:00,47.1,23.2,30.02,South,180,0.0,0.0,38,0.00,,,-99.99,,2013-12-19 23:54:00,
2013-12-19 19:00:00,47.5,23.5,30.02,South,180,0.0,0.0,38,0.00,,,-99.99,,2013-12-20 00:00:00,
2013-12-19 19:06:00,47.5,23.5,30.02,South,180,0.0,0.0,38,0.00,,,-99.99,,2013-12-20 00:06:00,
2013-12-19 19:12:00,46.9,23.0,30.02,South,180,0.0,0.0,38,0.00,,,-99.99,,2013-12-20 00:12:00,
2013-12-19 19:18:00,46.9,23.0,30.02,South,180,0.0,0.0,38,0.00,,,-99.99,,2013-12-20 00:18:00,
2013-12-19 19:24:00,46.8,22.9,30.02,South,180,0.0,0.0,38,0.00,,,-99.99,,2013-12-20 00:24:00,
2013-12-19 19:30:00,46.8,22.9,29.99,South,180,0.0,0.0,38,0.00,,,-99.99,,2013-12-20 00:30:00,
2013-12-19 19:36:00,47.7,23.7,29.99,South,180,0.0,0.0,38,0.00,,,-99.99,,2013-12-20 00:36:00,
2013-12-19 19:42:00,48.6,23.8,29.99,South,180,0.0,0.0,37,0.00,,,-99.99,,2013-12-20 00:42:00,
2013-12-19 19:48:00,49.5,24.7,30.02,South,180,0.0,0.0,37,0.00,,,-99.99,,2013-12-20 00:48:00,
2013-12-19 19:54:00,50.2,25.3,30.02,South,180,0.0,0.0,37,0.00,,,-99.99,,2013-12-20 00:54:00,
2013-12-19 20:00:00,50.9,25.9,29.99,South,180,0.0,0.0,37,0.00,,,-99.99,,2013-12-20 01:00:00,
2013-12-19 20:06:00,51.3,24.8,29.99,South,180,0.0,0.0,35,0.00,,,-99.99,,2013-12-20 01:06:00,
2013-12-19 20:12:00,51.4,24.9,29.99,South,180,0.0,0.0,35,0.00,,,-99.99,,2013-12-20 01:12:00,
2013-12-19 20:18:00,51.4,24.9,29.99,South,180,0.0,0.0,35,0.00,,,-99.99,,2013-12-20 01:18:00,
2013-12-19 20:24:00,51.4,24.9,29.99,South,180,0.0,0.0,35,0.00,,,-99.99,,2013-12-20 01:24:00,
2013-12-19 20:30:00,51.4,24.9,29.99,South,180,0.0,0.0,35,0.00,,,-99.99,,2013-12-20 01:30:00,
2013-12-19 20:36:00,51.3,24.8,29.99,South,180,0.0,0.0,35,0.00,,,-99.99,,2013-12-20 01:36:00,
2013-12-19 20:42:00,50.9,24.5,29.99,South,180,0.0,0.0,35,0.00,,,-99.99,,2013-12-20 01:42:00,
2013-12-19 20:48:00,50.5,24.1,29.99,South,180,0.0,0.0,35,0.00,,,-99.99,,2013-12-20 01:48:00,
2013-12-19 20:54:00,50.2,23.8,29.99,South,180,0.0,0.0,35,0.00,,,-99.99,,2013-12-20 01:54:00,
2013-12-19 21:00:00,50.2,23.8,29.99,South,180,0.0,0.0,35,0.00,,,-99.99,,2013-12-20 02:00:00,
2013-12-19 21:06:00,50.0,23.7,29.99,South,180,0.0,0.0,35,0.00,,,-99.99,,2013-12-20 02:06:00,
2013-12-19 21:12:00,50.0,23.7,29.99,South,180,0.0,0.0,35,0.00,,,-99.99,,2013-12-20 02:12:00,
2013-12-19 21:18:00,49.8,23.5,29.99,South,180,0.0,0.0,35,0.00,,,-99.99,,2013-12-20 02:18:00,
2013-12-19 21:24:00,49.8,23.5,29.99,South,180,0.0,0.0,35,0.00,,,-99.99,,2013-12-20 02:24:00,
2013-12-19 21:30:00,50.0,23.7,29.99,South,180,0.0,0.0,35,0.00,,,-99.99,,2013-12-20 02:30:00,
2013-12-19 21:36:00,50.2,23.8,29.99,South,180,0.0,0.0,35,0.00,,,-99.99,,2013-12-20 02:36:00,
2013-12-19 21:42:00,50.2,23.8,29.99,South,180,0.0,0.0,35,0.00,,,-99.99,,2013-12-20 02:42:00,
2013-12-19 21:48:00,50.0,23.7,29.99,South,180,0.0,0.0,35,0.00,,,-99.99,,2013-12-20 02:48:00,
2013-12-19 21:54:00,49.6,23.3,29.99,South,180,0.0,0.0,35,0.00,,,-99.99,,2013-12-20 02:54:00,
2013-12-19 22:00:00,49.5,23.2,29.99,South,180,0.0,0.0,35,0.00,,,-99.99,,2013-12-20 03:00:00,
2013-12-19 22:06:00,49.5,23.2,29.99,South,180,0.0,0.0,35,0.00,,,-99.99,,2013-12-20 03:06:00,
2013-12-19 22:12:00,49.5,23.2,29.99,South,180,0.0,0.0,35,0.00,,,-99.99,,2013-12-20 03:12:00,
2013-12-19 22:18:00,49.5,23.2,29.99,South,180,0.0,0.0,35,0.00,,,-99.99,,2013-12-20 03:18:00,
2013-12-19 22:24:00,49.3,23.0,29.99,South,180,0.0,0.0,35,0.00,,,-99.99,,2013-12-20 03:24:00,
2013-12-19 22:30:00,49.1,22.9,29.99,South,180,0.0,0.0,35,0.00,,,-99.99,,2013-12-20 03:30:00,
2013-12-19 22:36:00,48.9,22.7,29.99,South,180,0.0,0.0,35,0.00,,,-99.99,,2013-12-20 03:36:00,
2013-12-19 22:42:00,48.9,22.7,29.99,South,180,0.0,0.0,35,0.00,,,-99.99,,2013-12-20 03:42:00,
2013-12-19 22:48:00,48.9,22.7,29.96,South,180,0.0,0.0,35,0.00,,,-99.99,,2013-12-20 03:48:00,
2013-12-19 22:54:00,48.6,22.4,29.96,South,180,0.0,0.0,35,0.00,,,-99.99,,2013-12-20 03:54:00,
2013-12-19 23:00:00,48.4,22.3,29.96,South,180,0.0,0.0,35,0.00,,,-99.99,,2013-12-20 04:00:00,
2013-12-19 23:06:00,48.0,21.9,29.96,South,180,0.0,0.0,35,0.00,,,-99.99,,2013-12-20 04:06:00,
2013-12-19 23:12:00,47.5,21.5,29.96,South,180,0.0,0.0,35,0.00,,,-99.99,,2013-12-20 04:12:00,
2013-12-19 23:18:00,47.3,21.3,29.96,South,180,0.0,0.0,35,0.00,,,-99.99,,2013-12-20 04:18:00,
2013-12-19 23:24:00,47.3,21.3,29.96,South,180,0.0,0.0,35,0.00,,,-99.99,,2013-12-20 04:24:00,
2013-12-19 23:30:00,47.3,21.3,29.96,South,180,0.0,0.0,35,0.00,,,-99.99,,2013-12-20 04:30:00,
2013-12-19 23:36:00,47.1,21.1,29.96,South,180,0.0,0.0,35,0.00,,,-99.99,,2013-12-20 04:36:00,
2013-12-19 23:42:00,47.1,23.2,29.96,South,180,0.0,0.0,38,0.00,,,-99.99,,2013-12-20 04:42:00,
2013-12-19 23:48:00,47.1,23.2,29.96,South,180,0.0,0.0,38,0.00,,,-99.99,,2013-12-20 04:48:00,
2013-12-19 23:54:00,47.3,23.4,29.96,South,180,0.0,0.0,38,0.00,,,-99.99,,2013-12-20 04:54:00,